Weather in Rudnitsky

Russia / Bryansk Oblast     52°56′44″N   32°12′15″E
temp.,
°C
wind,
m/s
gust,
m/s
humid.,
%
clouds,
%
prec.,
mm/h
press.,
hPa
HPBL,
m
14 may, fri
fri1400:00+10se4118422 0.0 1012261
03:00+10se51283100 0.1 1012302
06:00+10sse51183100 0.0 1012365
09:00+10e389178 0.8 1011214
12:00+17ese710668 0.0 1010899
15:00+20se676698 0.8 10081284
18:00+15se2290100 3.4 100623
21:00+14ssw338999 3.8 100629
15 may, sat
sat1500:00+11ssw34925 0.0 100750
03:00+11s37973 0.1 1007129
06:00+10s389687 0.1 1008199
09:00+15ssw58797 0.1 1008592
12:00+17ssw6772100 1.1 10091281
15:00+17sw677583 3.1 10091188
18:00+17ssw467698 0.3 1009983
21:00+13ssw3591100 1.0 101073
16 may, sun
sun1600:00+10ssw47945 0.2 1010144
03:00+9ssw379711 0.2 1011152
06:00+10ssw379856 0.0 1012186
09:00+14sw458657 0.0 1013534
12:00+18ssw337154 0.3 10131063
15:00+19s3465100 0.7 10121209
18:00+18s247599 0.1 1012369
21:00+14se2284100 0.1 101217
17 may, mon
mon1700:00+13ese3387100 0.0 101238
03:00+12e349255 0.0 101158
06:00+12e3891100 0.0 1010148
09:00+18e5878100 0.0 1008339
12:00+19ene4683100 1.2 1006515
15:00+24se5966100 1.4 10031599
18:00+18sw6987100 5.6 1003329
21:00+14nnw3894100 8.3 1005287
18 may, tue
tue1800:00+12w3698100 0.0 1006135
03:00+11wsw1197100 0.0 100612
06:00+12nw3697100 0.0 1006221
09:00+15nw228388 0.0 1007565
12:00+18wnw2373100 0.1 1007937
15:00+17w2278100 2.4 1007606
18:00+18ssw227630 2.6 1006676
21:00+14sw229037 3.9 100611